| time (UTC) | temp F | wind direction | speed knots | gust knots | rain 1hr in | rain 24hr in | rain mn in | humidity % | barometer mb |
| 20260507180348 | 59 | 54 | 5.2 | 7.0 | 0.00 | 0.00 | 0.00 | 72 | 1018.2 |
| 20260507175247 | 58 | 45 | 6.1 | 8.7 | 0.00 | 0.00 | 0.00 | 74 | 1018.2 |
| 20260507174146 | 58 | 43 | 5.2 | 9.6 | 0.00 | 0.00 | 0.00 | 74 | 1018.4 |
| 20260507173046 | 58 | 56 | 6.1 | 11.3 | 0.00 | 0.00 | 0.00 | 74 | 1018.3 |
| 20260507171945 | 57 | 31 | 7.8 | 9.6 | 0.00 | 0.00 | 0.00 | 76 | 1018.4 |
| 20260507170845 | 56 | 43 | 7.0 | 9.6 | 0.00 | 0.00 | 0.00 | 76 | 1018.4 |
| 20260507165744 | 56 | 34 | 7.8 | 10.4 | 0.00 | 0.00 | 0.00 | 77 | 1018.5 |
| 20260507164643 | 56 | 37 | 7.8 | 11.3 | 0.00 | 0.00 | 0.00 | 79 | 1018.6 |
| 20260507163543 | 55 | 31 | 7.8 | 13.0 | 0.00 | 0.00 | 0.00 | 81 | 1018.6 |
| 20260507162442 | 54 | 54 | 7.0 | 9.6 | 0.00 | 0.00 | 0.00 | 82 | 1018.8 |
| 20260507161342 | 53 | 48 | 7.0 | 10.4 | 0.00 | 0.00 | 0.00 | 83 | 1018.8 |
| 20260507160241 | 53 | 53 | 7.8 | 12.2 | 0.00 | 0.00 | 0.00 | 83 | 1018.6 |
| 20260507155140 | 53 | 45 | 7.8 | 10.4 | 0.00 | 0.00 | 0.00 | 84 | 1018.8 |
| 20260507154040 | 53 | 39 | 7.8 | 10.4 | 0.00 | 0.00 | 0.00 | 83 | 1018.6 |
| 20260507152939 | 53 | 25 | 8.7 | 12.2 | 0.00 | 0.00 | 0.00 | 82 | 1018.6 |
| 20260507151838 | 53 | 37 | 8.7 | 12.2 | 0.00 | 0.00 | 0.00 | 82 | 1018.6 |
| 20260507150738 | 53 | 56 | 8.7 | 13.0 | 0.00 | 0.00 | 0.00 | 82 | 1018.4 |
| 20260507145637 | 53 | 33 | 7.8 | 11.3 | 0.00 | 0.00 | 0.00 | 82 | 1018.4 |
| 20260507144537 | 53 | 47 | 8.7 | 11.3 | 0.00 | 0.00 | 0.00 | 83 | 1018.5 |
| 20260507143436 | 53 | 54 | 9.6 | 13.0 | 0.00 | 0.00 | 0.00 | 83 | 1018.5 |
| 20260507142335 | 53 | 68 | 9.6 | 13.9 | 0.00 | 0.00 | 0.00 | 83 | 1018.5 |
| 20260507140134 | 54 | 71 | 7.0 | 11.3 | 0.00 | 0.00 | 0.00 | 83 | 1018.1 |
| 20260507135034 | 54 | 64 | 7.8 | 10.4 | 0.00 | 0.00 | 0.00 | 83 | 1017.9 |
| 20260507133933 | 54 | 76 | 8.7 | 8.7 | 0.00 | 0.00 | 0.00 | 83 | 1017.5 |
| 20260507132832 | 54 | 66 | 7.8 | 9.6 | 0.00 | 0.00 | 0.00 | 82 | 1017.6 |
| 20260507131732 | 54 | 75 | 8.7 | 12.2 | 0.00 | 0.00 | 0.00 | 82 | 1017.5 |
| 20260507130631 | 55 | 92 | 8.7 | 11.3 | 0.00 | 0.00 | 0.00 | 82 | 1017.6 |
| 20260507125530 | 55 | 75 | 9.6 | 13.0 | 0.00 | 0.00 | 0.00 | 82 | 1017.4 |
| 20260507124430 | 55 | 73 | 9.6 | 12.2 | 0.00 | 0.00 | 0.00 | 82 | 1017.0 |
| 20260507123330 | 55 | 101 | 8.7 | 11.3 | 0.00 | 0.00 | 0.00 | 82 | 1016.7 |
| 20260507122229 | 54 | 84 | 8.7 | 12.2 | 0.00 | 0.00 | 0.00 | 82 | 1016.5 |
| 20260507121128 | 54 | 107 | 9.6 | 13.9 | 0.00 | 0.00 | 0.00 | 82 | 1016.4 |
| 20260507120027 | 55 | 89 | 10.4 | 16.5 | 0.00 | 0.00 | 0.00 | 81 | 1016.2 |
| 20260507114927 | 55 | 86 | 11.3 | 16.5 | 0.00 | 0.00 | 0.00 | 81 | 1015.9 |
| 20260507113826 | 56 | 83 | 11.3 | 16.5 | 0.00 | 0.00 | 0.00 | 81 | 1015.9 |
| 20260507112726 | 56 | 89 | 8.7 | 13.0 | 0.00 | 0.00 | 0.00 | 81 | 1016.0 |
| 20260507111625 | 57 | 73 | 6.1 | 11.3 | 0.00 | 0.00 | 0.00 | 81 | 1015.5 |
| 20260507110524 | 58 | 114 | 4.3 | 10.4 | 0.00 | 0.00 | 0.00 | 80 | 1015.1 |
| 20260507105424 | 58 | 109 | 11.3 | 20.0 | 0.00 | 0.00 | 0.00 | 80 | 1015.5 |
| 20260507104323 | 57 | 133 | 9.6 | 13.9 | 0.00 | 0.00 | 0.00 | 81 | 1014.2 |
| 20260507103222 | 58 | 135 | 8.7 | 13.0 | 0.00 | 0.00 | 0.00 | 80 | 1014.0 |
| 20260507102123 | 58 | 127 | 7.8 | 12.2 | 0.00 | 0.00 | 0.00 | 79 | 1014.0 |
| 20260507101021 | 59 | 125 | 8.7 | 11.3 | 0.00 | 0.00 | 0.00 | 77 | 1014.0 |
| 20260507095921 | 59 | 114 | 8.7 | 13.0 | 0.00 | 0.00 | 0.00 | 71 | 1014.3 |
| 20260507094820 | 60 | 108 | 7.8 | 12.2 | 0.00 | 0.00 | 0.00 | 65 | 1014.4 |
| 20260507093719 | 61 | 109 | 7.8 | 10.4 | 0.00 | 0.00 | 0.00 | 57 | 1014.2 |
| 20260507092619 | 61 | 117 | 5.2 | 7.8 | 0.00 | 0.00 | 0.00 | 53 | 1014.4 |
| 20260507091518 | 61 | 106 | 5.2 | 7.8 | 0.00 | 0.00 | 0.00 | 51 | 1014.5 |
| 20260507090418 | 62 | 114 | 2.6 | 3.5 | 0.00 | 0.00 | 0.00 | 48 | 1014.3 |
| 20260507085317 | 62 | 114 | 3.5 | 6.1 | 0.00 | 0.00 | 0.00 | 47 | 1014.4 |
| 20260507084217 | 63 | 114 | 3.5 | 5.2 | 0.00 | 0.00 | 0.00 | 47 | 1014.4 |
| 20260507083116 | 62 | 129 | 5.2 | 7.0 | 0.00 | 0.00 | 0.00 | 48 | 1014.5 |
| 20260507082015 | 62 | 112 | 7.0 | 9.6 | 0.00 | 0.00 | 0.00 | 48 | 1014.6 |
| 20260507080914 | 63 | 120 | 4.3 | 6.1 | 0.00 | 0.00 | 0.00 | 48 | 1014.6 |
| 20260507075814 | 64 | 115 | 4.3 | 6.1 | 0.00 | 0.00 | 0.00 | 47 | 1014.8 |
| 20260507074713 | 65 | 125 | 3.5 | 7.0 | 0.00 | 0.00 | 0.00 | 45 | 1014.8 |
| 20260507073613 | 65 | 149 | 3.5 | 7.8 | 0.00 | 0.00 | 0.00 | 44 | 1014.5 |
| 20260507072512 | 65 | 166 | 4.3 | 7.8 | 0.00 | 0.00 | 0.00 | 43 | 1014.1 |
| 20260507071411 | 65 | 168 | 4.3 | 8.7 | 0.00 | 0.00 | 0.00 | 43 | 1014.1 |
| 20260507070311 | 65 | 164 | 4.3 | 6.1 | 0.00 | 0.00 | 0.00 | 45 | 1014.2 |
| 20260507065210 | 65 | 172 | 4.3 | 7.8 | 0.00 | 0.00 | 0.00 | 44 | 1014.1 |
| 20260507064110 | 65 | 175 | 6.1 | 11.3 | 0.00 | 0.00 | 0.00 | 46 | 1014.2 |
| 20260507063009 | 66 | 156 | 3.5 | 7.0 | 0.00 | 0.00 | 0.00 | 47 | 1014.1 |
| 20260507061908 | 66 | 156 | 4.3 | 9.6 | 0.00 | 0.00 | 0.00 | 50 | 1013.9 |
| 20260507060808 | 66 | 129 | 5.2 | 9.6 | 0.00 | 0.00 | 0.00 | 55 | 1013.8 |
| 20260507055708 | 66 | 137 | 5.2 | 9.6 | 0.00 | 0.00 | 0.00 | 55 | 1013.7 |
| 20260507054607 | 66 | 141 | 6.1 | 11.3 | 0.00 | 0.00 | 0.00 | 55 | 1013.7 |
| 20260507053506 | 66 | 132 | 6.1 | 10.4 | 0.00 | 0.00 | 0.00 | 55 | 1013.5 |
| 20260507052405 | 67 | 146 | 5.2 | 9.6 | 0.00 | 0.00 | 0.00 | 55 | 1013.5 |
| 20260507051305 | 67 | 141 | 4.3 | 8.7 | 0.00 | 0.00 | 0.00 | 55 | 1013.5 |
| 20260507050204 | 67 | 137 | 6.1 | 9.6 | 0.00 | 0.00 | 0.00 | 54 | 1013.3 |
| 20260507045104 | 68 | 137 | 7.0 | 11.3 | 0.00 | 0.00 | 0.00 | 52 | 1013.2 |
| 20260507044003 | 68 | 137 | 5.2 | 11.3 | 0.00 | 0.00 | 0.00 | 51 | 1012.9 |
| 20260507042902 | 69 | 143 | 6.1 | 12.2 | 0.00 | 0.00 | 0.00 | 49 | 1013.0 |
| 20260507041802 | 69 | 146 | 5.2 | 11.3 | 0.00 | 0.00 | 0.00 | 47 | 1013.0 |
| 20260507040701 | 69 | 141 | 7.0 | 10.4 | 0.00 | 0.00 | 0.00 | 44 | 1012.9 |
| 20260507035600 | 69 | 125 | 6.1 | 10.4 | 0.00 | 0.00 | 0.00 | 43 | 1012.6 |
| 20260507034500 | 70 | 142 | 7.0 | 11.3 | 0.00 | 0.00 | 0.00 | 38 | 1012.5 |
| 20260507033359 | 70 | 151 | 7.0 | 10.4 | 0.00 | 0.00 | 0.00 | 35 | 1012.4 |
| 20260507032258 | 71 | 142 | 7.0 | 11.3 | 0.00 | 0.00 | 0.00 | 34 | 1012.5 |
| 20260507031158 | 71 | 150 | 6.1 | 12.2 | 0.00 | 0.00 | 0.00 | 33 | 1012.5 |
| 20260507030057 | 71 | 139 | 7.0 | 13.9 | 0.00 | 0.00 | 0.00 | 32 | 1012.2 |
| 20260507024957 | 71 | 141 | 6.1 | 10.4 | 0.00 | 0.00 | 0.00 | 33 | 1012.2 |
| 20260507023856 | 71 | 147 | 5.2 | 8.7 | 0.00 | 0.00 | 0.00 | 33 | 1012.0 |
| 20260507022756 | 71 | 129 | 7.8 | 11.3 | 0.00 | 0.00 | 0.00 | 33 | 1012.0 |
| 20260507021655 | 71 | 132 | 7.0 | 9.6 | 0.00 | 0.00 | 0.00 | 34 | 1011.6 |
| 20260507020554 | 71 | 129 | 7.8 | 10.4 | 0.00 | 0.00 | 0.00 | 34 | 1011.5 |
| 20260507015454 | 72 | 128 | 7.8 | 9.6 | 0.00 | 0.00 | 0.00 | 34 | 1011.3 |
| 20260507014353 | 72 | 127 | 7.0 | 9.6 | 0.00 | 0.00 | 0.00 | 33 | 1011.2 |
| 20260507013252 | 73 | 141 | 7.8 | 11.3 | 0.00 | 0.00 | 0.00 | 32 | 1011.1 |
| 20260507012152 | 74 | 126 | 7.0 | 9.6 | 0.00 | 0.00 | 0.00 | 31 | 1010.9 |
| 20260507011051 | 74 | 122 | 7.0 | 12.2 | 0.00 | 0.00 | 0.00 | 31 | 1010.7 |
| 20260507005950 | 75 | 124 | 6.1 | 9.6 | 0.00 | 0.00 | 0.00 | 31 | 1010.7 |
| 20260507004850 | 75 | 125 | 7.0 | 10.4 | 0.00 | 0.00 | 0.00 | 31 | 1010.7 |
| 20260507003749 | 75 | 129 | 6.1 | 8.7 | 0.00 | 0.00 | 0.00 | 31 | 1010.6 |
| 20260507002649 | 75 | 125 | 6.1 | 8.7 | 0.00 | 0.00 | 0.00 | 31 | 1010.5 |
| 20260507001548 | 75 | 119 | 7.0 | 9.6 | 0.00 | 0.00 | 0.00 | 30 | 1010.6 |
| 20260507000450 | 75 | 112 | 7.8 | 12.2 | 0.00 | 0.00 | 0.00 | 29 | 1010.5 |
| 20260506235347 | 76 | 109 | 7.0 | 11.3 | 0.00 | 0.00 | 0.00 | 29 | 1010.5 |
| 20260506234246 | 76 | 102 | 7.8 | 9.6 | 0.00 | 0.00 | 0.00 | 29 | 1010.6 |
| 20260506233146 | 77 | 84 | 8.7 | 12.2 | 0.00 | 0.00 | 0.00 | 29 | 1010.7 |
| 20260506232045 | 77 | 48 | 10.4 | 14.8 | 0.00 | 0.00 | 0.00 | 28 | 1010.6 |
| 20260506230944 | 77 | 77 | 7.8 | 12.2 | 0.00 | 0.00 | 0.00 | 29 | 1010.6 |
| 20260506225844 | 78 | 81 | 7.0 | 11.3 | 0.00 | 0.00 | 0.00 | 28 | 1010.5 |
| 20260506224743 | 78 | 73 | 7.8 | 13.0 | 0.00 | 0.00 | 0.00 | 28 | 1010.5 |
| 20260506223642 | 78 | 71 | 6.1 | 10.4 | 0.00 | 0.00 | 0.00 | 27 | 1010.4 |
| 20260506222542 | 77 | 67 | 7.0 | 10.4 | 0.00 | 0.00 | 0.00 | 28 | 1010.4 |
| 20260506221441 | 77 | 84 | 8.7 | 11.3 | 0.00 | 0.00 | 0.00 | 28 | 1010.4 |
| 20260506220341 | 78 | 58 | 5.2 | 10.4 | 0.00 | 0.00 | 0.00 | 28 | 1010.5 |
| 20260506215240 | 79 | 23 | 6.1 | 8.7 | 0.00 | 0.00 | 0.00 | 27 | 1010.4 |
| 20260506214139 | 79 | 60 | 6.1 | 8.7 | 0.00 | 0.00 | 0.00 | 28 | 1010.4 |
| 20260506213039 | 78 | 66 | 6.1 | 9.6 | 0.00 | 0.00 | 0.00 | 28 | 1010.4 |
| 20260506211938 | 79 | 20 | 4.3 | 12.2 | 0.00 | 0.00 | 0.00 | 27 | 1010.6 |
| 20260506210838 | 78 | 247 | 3.5 | 7.8 | 0.00 | 0.00 | 0.00 | 28 | 1010.9 |
| 20260506205737 | 78 | 354 | 7.0 | 10.4 | 0.00 | 0.00 | 0.00 | 28 | 1011.0 |
| 20260506204636 | 79 | 70 | 7.8 | 13.0 | 0.00 | 0.00 | 0.00 | 27 | 1011.0 |
| 20260506203536 | 80 | 70 | 6.1 | 13.0 | 0.00 | 0.00 | 0.00 | 28 | 1011.1 |
| 20260506202435 | 79 | 314 | 2.6 | 9.6 | 0.00 | 0.00 | 0.00 | 26 | 1011.3 |
| 20260506201334 | 77 | 314 | 5.2 | 11.3 | 0.00 | 0.00 | 0.00 | 27 | 1011.4 |
| 20260506200234 | 79 | 339 | 4.3 | 10.4 | 0.00 | 0.00 | 0.00 | 26 | 1011.5 |
| 20260506195133 | 78 | 11 | 5.2 | 10.4 | 0.00 | 0.00 | 0.00 | 29 | 1011.5 |
| 20260506194033 | 77 | 39 | 6.1 | 13.0 | 0.00 | 0.00 | 0.00 | 29 | 1011.6 |
| 20260506192932 | 76 | 85 | 7.8 | 15.6 | 0.00 | 0.00 | 0.00 | 30 | 1011.6 |
| 20260506191831 | 77 | 58 | 6.1 | 13.9 | 0.00 | 0.00 | 0.00 | 31 | 1011.7 |
| 20260506190731 | 77 | 23 | 6.1 | 9.6 | 0.00 | 0.00 | 0.00 | 29 | 1011.9 |
| 20260506185630 | 77 | 43 | 4.3 | 4.3 | 0.00 | 0.00 | 0.00 | 27 | 1012.0 |
| 20260506184529 | 77 | 60 | 4.3 | 10.4 | 0.00 | 0.00 | 0.00 | 31 | 1012.3 |
| 20260506183429 | 75 | 300 | 4.3 | 7.8 | 0.00 | 0.00 | 0.00 | 31 | 1012.4 |
| 20260506182328 | 75 | 325 | 6.1 | 12.2 | 0.00 | 0.00 | 0.00 | 30 | 1012.4 |
| 20260506181228 | 75 | 332 | 6.1 | 7.8 | 0.00 | 0.00 | 0.00 | 31 | 1012.3 |